FDB4JZ OMDB-OBBI

Flight info

Callsign FDB4JZ
Flight time 1h 6m
Altitude 24000
Route NABIX3F NABIX P699 ORMID Y856 ALKAN/N0385F180 Y856 SOLOB/N0375F160 Y856 ORDIG ORDIG1
Aircraft B38M/M-VGDW/C

Departure

Time 2026-04-24 19:32
Airport Dubai International Airport (OMDB)

Arrival

Time 2026-04-24 20:38
Airport Bahrain International Airport (OBBI)
Time Latitude Longitude Altitude Speed Heading
2026-04-24 18:54 25.26572 55.35549 17 ft 0 kts 31°
2026-04-24 19:16 25.26560 55.35541 17 ft 4 kts 28°
2026-04-24 19:17 25.26537 55.35529 16 ft 4 kts 20°
2026-04-24 19:17 25.26512 55.35522 15 ft 4 kts 359°
2026-04-24 19:17 25.26491 55.35530 16 ft 3 kts 305°
2026-04-24 19:17 25.26489 55.35532 15 ft 2 kts 302°
2026-04-24 19:22 25.26491 55.35528 16 ft 0 kts 289°
2026-04-24 19:23 25.26490 55.35525 16 ft 1 kts 260°
2026-04-24 19:23 25.26476 55.35490 13 ft 9 kts 244°
2026-04-24 19:23 25.26436 55.35472 9 ft 8 kts 182°
2026-04-24 19:23 25.26378 55.35494 8 ft 10 kts 150°
2026-04-24 19:24 25.26353 55.35568 8 ft 12 kts 100°
2026-04-24 19:24 25.26319 55.35664 7 ft 15 kts 121°
2026-04-24 19:24 25.26262 55.35772 8 ft 17 kts 120°
2026-04-24 19:24 25.26202 55.35888 11 ft 18 kts 120°
2026-04-24 19:25 25.26131 55.36003 11 ft 18 kts 121°
2026-04-24 19:25 25.26073 55.36111 15 ft 17 kts 120°
2026-04-24 19:25 25.26014 55.36217 18 ft 16 kts 125°
2026-04-24 19:25 25.25954 55.36322 22 ft 17 kts 122°
2026-04-24 19:26 25.25893 55.36430 24 ft 17 kts 121°
2026-04-24 19:26 25.25834 55.36544 24 ft 18 kts 120°
2026-04-24 19:26 25.25764 55.36671 24 ft 20 kts 121°
2026-04-24 19:26 25.25690 55.36807 25 ft 21 kts 121°
2026-04-24 19:27 25.25610 55.36956 23 ft 23 kts 121°
2026-04-24 19:27 25.25524 55.37098 28 ft 7 kts 122°
2026-04-24 19:27 25.25495 55.37148 26 ft 8 kts 122°
2026-04-24 19:27 25.25462 55.37207 27 ft 10 kts 122°
2026-04-24 19:28 25.25426 55.37271 29 ft 10 kts 122°
2026-04-24 19:28 25.25390 55.37334 31 ft 9 kts 120°
2026-04-24 19:28 25.25359 55.37399 32 ft 10 kts 121°
2026-04-24 19:28 25.25321 55.37468 33 ft 11 kts 121°
2026-04-24 19:29 25.25224 55.37649 35 ft 16 kts 121°
2026-04-24 19:29 25.25159 55.37761 35 ft 19 kts 123°
2026-04-24 19:29 25.25083 55.37896 34 ft 22 kts 121°
2026-04-24 19:30 25.24999 55.38051 34 ft 23 kts 121°
2026-04-24 19:30 25.24932 55.38115 34 ft 8 kts 180°
2026-04-24 19:30 25.24880 55.38094 35 ft 8 kts 210°
2026-04-24 19:30 25.24831 55.38063 34 ft 8 kts 209°
2026-04-24 19:31 25.24802 55.38020 36 ft 6 kts 275°
2026-04-24 19:31 25.24819 55.37989 35 ft 6 kts 301°
2026-04-24 19:31 25.24828 55.37971 35 ft 14 kts 302°
2026-04-24 19:31 25.25038 55.37595 34 ft 100 kts 302°
2026-04-24 19:32 25.25549 55.36697 37 ft 171 kts 302°
2026-04-24 19:32 25.26245 55.35510 631 ft 193 kts 301°
2026-04-24 19:32 25.27038 55.34359 1641 ft 179 kts 312°
2026-04-24 19:32 25.27697 55.33206 2151 ft 176 kts 298°
2026-04-24 19:33 25.28276 55.32021 2391 ft 179 kts 300°
2026-04-24 19:33 25.28904 55.30776 2585 ft 190 kts 296°
2026-04-24 19:33 25.29120 55.29325 2658 ft 195 kts 264°
2026-04-24 19:33 25.28708 55.27883 2908 ft 199 kts 250°
2026-04-24 19:34 25.28169 55.26486 3220 ft 201 kts 249°
2026-04-24 19:34 25.27598 55.25050 3537 ft 203 kts 248°
2026-04-24 19:34 25.27025 55.23641 3865 ft 204 kts 247°
2026-04-24 19:34 25.26428 55.22192 4212 ft 209 kts 247°
2026-04-24 19:35 25.25819 55.20729 4608 ft 211 kts 246°
2026-04-24 19:35 25.25201 55.19255 4977 ft 211 kts 246°
2026-04-24 19:35 25.24579 55.17781 5353 ft 212 kts 246°
2026-04-24 19:35 25.24056 55.16258 5700 ft 211 kts 259°
2026-04-24 19:36 25.23820 55.14659 6101 ft 212 kts 261°
2026-04-24 19:36 25.23596 55.13043 6467 ft 213 kts 261°
2026-04-24 19:36 25.23407 55.11440 6819 ft 213 kts 265°
2026-04-24 19:36 25.23324 55.09804 7178 ft 214 kts 268°
2026-04-24 19:37 25.23276 55.08155 7542 ft 215 kts 268°
2026-04-24 19:37 25.23236 55.06497 7909 ft 216 kts 268°
2026-04-24 19:37 25.23200 55.04836 8285 ft 218 kts 268°
2026-04-24 19:37 25.23165 55.03145 8669 ft 220 kts 268°
2026-04-24 19:38 25.23133 55.01469 9040 ft 221 kts 268°
2026-04-24 19:38 25.23106 54.99745 9429 ft 222 kts 268°
2026-04-24 19:38 25.23088 54.98054 9804 ft 224 kts 268°
2026-04-24 19:38 25.23071 54.96333 10161 ft 225 kts 268°
2026-04-24 19:39 25.23052 54.94604 10511 ft 226 kts 268°
2026-04-24 19:39 25.23026 54.92863 10870 ft 227 kts 268°
2026-04-24 19:39 25.23001 54.91115 11234 ft 228 kts 268°
2026-04-24 19:39 25.22977 54.89417 11595 ft 229 kts 268°
2026-04-24 19:40 25.22951 54.87644 11963 ft 231 kts 268°
2026-04-24 19:40 25.22925 54.85866 12339 ft 232 kts 268°
2026-04-24 19:40 25.22899 54.84077 12721 ft 233 kts 268°
2026-04-24 19:40 25.22874 54.82298 13102 ft 235 kts 268°
2026-04-24 19:41 25.22849 54.80492 13480 ft 236 kts 268°
2026-04-24 19:41 25.22826 54.78672 13861 ft 237 kts 268°
2026-04-24 19:41 25.22801 54.76842 14215 ft 238 kts 268°
2026-04-24 19:41 25.22776 54.75008 14552 ft 239 kts 268°
2026-04-24 19:42 25.22757 54.73170 14770 ft 240 kts 268°
2026-04-24 19:42 25.22740 54.71327 14890 ft 240 kts 268°
2026-04-24 19:42 25.22723 54.69485 14918 ft 240 kts 268°
2026-04-24 19:42 25.22705 54.67647 14904 ft 239 kts 268°
2026-04-24 19:43 25.22686 54.65814 14953 ft 239 kts 268°
2026-04-24 19:43 25.22668 54.63975 15088 ft 239 kts 268°
2026-04-24 19:43 25.22647 54.62081 15366 ft 257 kts 268°
2026-04-24 19:43 25.22623 54.60049 15613 ft 274 kts 268°
2026-04-24 19:44 25.22595 54.57869 15856 ft 292 kts 268°
2026-04-24 19:44 25.22564 54.55588 16128 ft 300 kts 268°
2026-04-24 19:44 25.22531 54.53293 16399 ft 303 kts 268°
2026-04-24 19:44 25.22496 54.50966 16676 ft 304 kts 268°
2026-04-24 19:45 25.22463 54.48632 16953 ft 305 kts 268°
2026-04-24 19:45 25.22679 54.46299 17213 ft 307 kts 287°
2026-04-24 19:45 25.23689 54.44215 17525 ft 312 kts 304°
2026-04-24 19:45 25.24889 54.42212 17818 ft 313 kts 298°
2026-04-24 19:46 25.25948 54.40117 18121 ft 311 kts 295°
2026-04-24 19:46 25.26925 54.37999 18380 ft 309 kts 293°
2026-04-24 19:46 25.27854 54.35850 18632 ft 309 kts 292°
2026-04-24 19:46 25.28753 54.33688 18885 ft 310 kts 291°
2026-04-24 19:47 25.29641 54.31510 19141 ft 311 kts 291°
2026-04-24 19:47 25.30522 54.29321 19399 ft 312 kts 291°
2026-04-24 19:47 25.31389 54.27149 19663 ft 313 kts 291°
2026-04-24 19:47 25.32267 54.24939 19918 ft 314 kts 291°
2026-04-24 19:48 25.33147 54.22717 20180 ft 316 kts 291°
2026-04-24 19:48 25.34026 54.20493 20448 ft 317 kts 291°
2026-04-24 19:48 25.35794 54.16016 20986 ft 319 kts 291°
2026-04-24 19:49 25.37573 54.11507 21535 ft 321 kts 291°
2026-04-24 19:49 25.39360 54.06971 22092 ft 323 kts 291°
2026-04-24 19:50 25.42054 54.00125 22957 ft 327 kts 291°
2026-04-24 19:50 25.42962 53.97817 23258 ft 327 kts 291°
2026-04-24 19:51 25.44779 53.93188 23768 ft 328 kts 291°
2026-04-24 19:51 25.45692 53.90863 23960 ft 330 kts 291°
2026-04-24 19:52 25.47519 53.86204 23998 ft 330 kts 291°
2026-04-24 19:52 25.48430 53.83876 24002 ft 330 kts 291°
2026-04-24 19:52 25.49341 53.81550 24003 ft 330 kts 291°
2026-04-24 19:52 25.50253 53.79222 24001 ft 330 kts 291°
2026-04-24 19:53 25.51154 53.76916 24001 ft 330 kts 291°
2026-04-24 19:53 25.52065 53.74586 24002 ft 330 kts 291°
2026-04-24 19:53 25.53871 53.69962 24004 ft 329 kts 291°
2026-04-24 19:54 25.54778 53.67638 24004 ft 329 kts 291°
2026-04-24 19:54 25.55684 53.65315 24006 ft 329 kts 291°
2026-04-24 19:54 25.56592 53.62986 24005 ft 329 kts 291°
2026-04-24 19:54 25.57500 53.60655 24005 ft 329 kts 291°
2026-04-24 19:55 25.57794 53.59900 24004 ft 329 kts 291°
2026-04-24 19:55 25.59304 53.56022 24007 ft 329 kts 291°
2026-04-24 19:55 25.60220 53.53666 24006 ft 329 kts 291°
2026-04-24 19:55 25.61115 53.51364 24007 ft 329 kts 291°
2026-04-24 19:56 25.62021 53.49033 24006 ft 329 kts 291°
2026-04-24 19:56 25.62925 53.46704 24008 ft 329 kts 291°
2026-04-24 19:56 25.63828 53.44377 24006 ft 329 kts 291°
2026-04-24 19:56 25.64732 53.42048 24006 ft 329 kts 291°
2026-04-24 19:57 25.65637 53.39713 24008 ft 329 kts 291°
2026-04-24 19:57 25.66538 53.37387 24008 ft 329 kts 291°
2026-04-24 19:57 25.67441 53.35055 24007 ft 329 kts 291°
2026-04-24 19:57 25.68344 53.32722 24009 ft 329 kts 291°
2026-04-24 19:58 25.69247 53.30387 24015 ft 329 kts 291°
2026-04-24 19:58 25.70150 53.28050 24011 ft 331 kts 290°
2026-04-24 19:58 25.70751 53.26495 24010 ft 331 kts 290°
2026-04-24 19:58 25.71657 53.24148 24015 ft 331 kts 290°
2026-04-24 19:59 25.72561 53.21807 24011 ft 329 kts 290°
2026-04-24 19:59 25.73463 53.19468 24012 ft 329 kts 290°
2026-04-24 19:59 25.74363 53.17135 24011 ft 329 kts 290°
2026-04-24 19:59 25.75262 53.14802 24009 ft 329 kts 290°
2026-04-24 20:00 25.76160 53.12469 24008 ft 329 kts 290°
2026-04-24 20:00 25.77060 53.10134 24010 ft 328 kts 290°
2026-04-24 20:00 25.77946 53.07829 24009 ft 328 kts 290°
2026-04-24 20:00 25.78851 53.05474 24012 ft 328 kts 290°
2026-04-24 20:01 25.79749 53.03139 24015 ft 328 kts 290°
2026-04-24 20:01 25.80632 53.00838 24011 ft 328 kts 290°
2026-04-24 20:01 25.81528 52.98505 24009 ft 328 kts 290°
2026-04-24 20:01 25.82421 52.96176 24011 ft 328 kts 290°
2026-04-24 20:02 25.83312 52.93851 24013 ft 327 kts 290°
2026-04-24 20:02 25.84204 52.91523 24013 ft 327 kts 290°
2026-04-24 20:02 25.85096 52.89196 24014 ft 327 kts 290°
2026-04-24 20:02 25.85988 52.86865 24013 ft 327 kts 290°
2026-04-24 20:03 25.86876 52.84543 24023 ft 327 kts 290°
2026-04-24 20:03 25.87767 52.82212 24021 ft 328 kts 290°
2026-04-24 20:03 25.88657 52.79882 24021 ft 328 kts 290°
2026-04-24 20:03 25.89546 52.77555 24022 ft 328 kts 290°
2026-04-24 20:04 25.90425 52.75251 24015 ft 328 kts 290°
2026-04-24 20:04 25.91314 52.72921 24016 ft 328 kts 290°
2026-04-24 20:04 25.92206 52.70581 24020 ft 328 kts 290°
2026-04-24 20:04 25.93094 52.68251 24021 ft 328 kts 290°
2026-04-24 20:05 25.93984 52.65913 24023 ft 328 kts 290°
2026-04-24 20:05 25.94873 52.63578 24025 ft 328 kts 290°
2026-04-24 20:05 25.95761 52.61242 24025 ft 328 kts 290°
2026-04-24 20:05 25.96651 52.58899 24025 ft 328 kts 290°
2026-04-24 20:06 25.97540 52.56561 24034 ft 328 kts 290°
2026-04-24 20:06 25.98429 52.54220 24030 ft 328 kts 290°
2026-04-24 20:06 25.99317 52.51880 24025 ft 328 kts 290°
2026-04-24 20:06 26.00199 52.49554 24025 ft 327 kts 290°
2026-04-24 20:07 26.00784 52.48009 24021 ft 327 kts 289°
2026-04-24 20:07 26.01954 52.44923 24024 ft 327 kts 289°
2026-04-24 20:07 26.02834 52.42597 24024 ft 327 kts 289°
2026-04-24 20:07 26.03715 52.40269 24024 ft 327 kts 289°
2026-04-24 20:08 26.04595 52.37941 24030 ft 327 kts 289°
2026-04-24 20:08 26.05474 52.35615 24028 ft 327 kts 289°
2026-04-24 20:08 26.06356 52.33281 24028 ft 327 kts 289°
2026-04-24 20:08 26.07235 52.30952 24028 ft 327 kts 289°
2026-04-24 20:09 26.08115 52.28621 24025 ft 327 kts 289°
2026-04-24 20:09 26.08995 52.26287 24028 ft 327 kts 289°
2026-04-24 20:09 26.09877 52.23947 24031 ft 328 kts 289°
2026-04-24 20:09 26.10759 52.21605 24044 ft 328 kts 289°
2026-04-24 20:10 26.11639 52.19267 24038 ft 328 kts 289°
2026-04-24 20:10 26.12523 52.16918 24035 ft 329 kts 289°
2026-04-24 20:10 26.13403 52.14576 24037 ft 329 kts 289°
2026-04-24 20:10 26.14287 52.12224 24036 ft 329 kts 289°
2026-04-24 20:11 26.15166 52.09884 24035 ft 329 kts 289°
2026-04-24 20:11 26.16047 52.07535 24035 ft 329 kts 289°
2026-04-24 20:11 26.16931 52.05179 24034 ft 329 kts 289°
2026-04-24 20:11 26.17800 52.02862 24030 ft 328 kts 289°
2026-04-24 20:12 26.18679 52.00516 24029 ft 328 kts 289°
2026-04-24 20:12 26.19557 51.98171 24036 ft 328 kts 289°
2026-04-24 20:12 26.20438 51.95816 24036 ft 328 kts 289°
2026-04-24 20:12 26.21315 51.93470 24035 ft 328 kts 289°
2026-04-24 20:13 26.22195 51.91118 24033 ft 328 kts 289°
2026-04-24 20:13 26.23073 51.88768 24033 ft 328 kts 289°
2026-04-24 20:13 26.23951 51.86416 23992 ft 329 kts 289°
2026-04-24 20:13 26.24819 51.84090 23726 ft 328 kts 289°
2026-04-24 20:14 26.25694 51.81743 23487 ft 328 kts 289°
2026-04-24 20:14 26.26568 51.79397 23204 ft 327 kts 289°
2026-04-24 20:14 26.27424 51.77100 22918 ft 325 kts 289°
2026-04-24 20:14 26.28289 51.74778 22630 ft 323 kts 289°
2026-04-24 20:15 26.29118 51.72549 22355 ft 322 kts 289°
2026-04-24 20:15 26.29972 51.70252 22075 ft 321 kts 289°
2026-04-24 20:15 26.30824 51.67961 21806 ft 317 kts 289°
2026-04-24 20:15 26.31659 51.65712 21559 ft 312 kts 289°
2026-04-24 20:16 26.32486 51.63484 21280 ft 310 kts 289°
2026-04-24 20:16 26.33308 51.61269 21009 ft 309 kts 289°
2026-04-24 20:16 26.34128 51.59057 20740 ft 308 kts 289°
2026-04-24 20:16 26.34943 51.56859 20478 ft 307 kts 289°
2026-04-24 20:17 26.35758 51.54660 20209 ft 306 kts 289°
2026-04-24 20:17 26.37377 51.50288 19692 ft 304 kts 289°
2026-04-24 20:17 26.38180 51.48118 19435 ft 302 kts 289°
2026-04-24 20:18 26.38711 51.46681 19271 ft 302 kts 289°
2026-04-24 20:18 26.39768 51.43822 18932 ft 300 kts 289°
2026-04-24 20:18 26.40562 51.41674 18680 ft 299 kts 289°
2026-04-24 20:18 26.41350 51.39538 18431 ft 298 kts 289°
2026-04-24 20:19 26.42138 51.37404 18181 ft 297 kts 289°
2026-04-24 20:19 26.42924 51.35273 17882 ft 296 kts 289°
2026-04-24 20:19 26.43708 51.33145 17596 ft 295 kts 289°
2026-04-24 20:19 26.44490 51.31023 17291 ft 296 kts 289°
2026-04-24 20:20 26.45249 51.28901 16975 ft 293 kts 284°
2026-04-24 20:20 26.45466 51.26683 16671 ft 286 kts 262°
2026-04-24 20:20 26.44978 51.24543 16383 ft 285 kts 250°
2026-04-24 20:20 26.44323 51.22479 16092 ft 285 kts 249°
2026-04-24 20:21 26.43614 51.20389 15797 ft 284 kts 248°
2026-04-24 20:21 26.42890 51.18337 15502 ft 284 kts 248°
2026-04-24 20:21 26.42156 51.16298 15218 ft 283 kts 247°
2026-04-24 20:21 26.41415 51.14267 14930 ft 282 kts 247°
2026-04-24 20:22 26.40679 51.12267 14663 ft 282 kts 247°
2026-04-24 20:22 26.39922 51.10222 14380 ft 281 kts 246°
2026-04-24 20:22 26.39185 51.08234 14108 ft 280 kts 246°
2026-04-24 20:22 26.38440 51.06228 13838 ft 279 kts 246°
2026-04-24 20:23 26.37696 51.04228 13537 ft 279 kts 246°
2026-04-24 20:23 26.36955 51.02236 13230 ft 278 kts 246°
2026-04-24 20:23 26.36213 51.00244 12916 ft 277 kts 246°
2026-04-24 20:23 26.35474 50.98260 12624 ft 276 kts 246°
2026-04-24 20:24 26.34985 50.96949 12428 ft 276 kts 246°
2026-04-24 20:24 26.34284 50.94223 11998 ft 276 kts 267°
2026-04-24 20:24 26.34639 50.92120 11705 ft 279 kts 290°
2026-04-24 20:24 26.35598 50.90230 11447 ft 282 kts 298°
2026-04-24 20:25 26.36627 50.88398 11160 ft 282 kts 299°
2026-04-24 20:25 26.37676 50.86554 10852 ft 281 kts 299°
2026-04-24 20:25 26.38729 50.84717 10554 ft 280 kts 299°
2026-04-24 20:25 26.39780 50.82893 10267 ft 278 kts 300°
2026-04-24 20:26 26.40809 50.81114 9985 ft 276 kts 300°
2026-04-24 20:26 26.41760 50.79270 9667 ft 272 kts 288°
2026-04-24 20:26 26.42035 50.77228 9331 ft 263 kts 264°
2026-04-24 20:26 26.41645 50.75283 9015 ft 253 kts 249°
2026-04-24 20:27 26.40612 50.73763 8649 ft 248 kts 216°
2026-04-24 20:27 26.39003 50.73178 8305 ft 246 kts 184°
2026-04-24 20:27 26.37321 50.73464 8002 ft 243 kts 170°
2026-04-24 20:27 26.35717 50.74050 7653 ft 244 kts 152°
2026-04-24 20:28 26.34455 50.75268 7335 ft 245 kts 130°
2026-04-24 20:28 26.33452 50.76802 7017 ft 245 kts 128°
2026-04-24 20:28 26.32509 50.78387 6692 ft 245 kts 123°
2026-04-24 20:28 26.31648 50.79989 6370 ft 243 kts 123°
2026-04-24 20:29 26.31062 50.81071 6129 ft 242 kts 123°
2026-04-24 20:29 26.29887 50.83220 5673 ft 243 kts 123°
2026-04-24 20:29 26.28990 50.84819 5322 ft 243 kts 123°
2026-04-24 20:29 26.28085 50.86409 4979 ft 243 kts 123°
2026-04-24 20:30 26.27166 50.87996 4651 ft 243 kts 123°
2026-04-24 20:30 26.26257 50.89541 4289 ft 244 kts 123°
2026-04-24 20:30 26.25316 50.91119 3926 ft 244 kts 123°
2026-04-24 20:30 26.24365 50.92683 3578 ft 243 kts 123°
2026-04-24 20:31 26.23425 50.94208 3233 ft 241 kts 123°
2026-04-24 20:31 26.22446 50.95722 2862 ft 240 kts 130°
2026-04-24 20:31 26.21029 50.96659 2471 ft 241 kts 169°
2026-04-24 20:31 26.19416 50.96441 2119 ft 236 kts 205°
2026-04-24 20:32 26.17996 50.95553 1794 ft 233 kts 212°
2026-04-24 20:32 26.16621 50.94602 1545 ft 230 kts 218°
2026-04-24 20:32 26.15735 50.93214 1463 ft 220 kts 259°
2026-04-24 20:32 26.15606 50.91528 1517 ft 220 kts 272°
2026-04-24 20:33 26.15605 50.89819 1507 ft 221 kts 273°
2026-04-24 20:33 26.15603 50.88129 1476 ft 216 kts 273°
2026-04-24 20:33 26.15597 50.86476 1497 ft 211 kts 273°
2026-04-24 20:33 26.15576 50.84839 1516 ft 212 kts 273°
2026-04-24 20:34 26.15565 50.83217 1502 ft 211 kts 273°
2026-04-24 20:34 26.15610 50.81596 1466 ft 207 kts 285°
2026-04-24 20:34 26.16205 50.80182 1498 ft 201 kts 304°
2026-04-24 20:34 26.16969 50.78865 1515 ft 204 kts 308°
2026-04-24 20:35 26.17890 50.77673 1495 ft 202 kts 321°
2026-04-24 20:35 26.19047 50.76807 1500 ft 201 kts 328°
2026-04-24 20:35 26.20051 50.75726 1485 ft 203 kts 308°
2026-04-24 20:35 26.20787 50.74378 1497 ft 204 kts 303°
2026-04-24 20:36 26.21520 50.73045 1468 ft 204 kts 305°
2026-04-24 20:36 26.22295 50.71712 1228 ft 205 kts 305°
2026-04-24 20:36 26.23056 50.70390 1020 ft 198 kts 305°
2026-04-24 20:36 26.23758 50.69164 924 ft 179 kts 306°
2026-04-24 20:37 26.24389 50.68036 628 ft 164 kts 306°
2026-04-24 20:37 26.25030 50.67009 233 ft 156 kts 307°
2026-04-24 20:37 26.25589 50.65968 178 ft 159 kts 304°
2026-04-24 20:37 26.26188 50.64929 100 ft 160 kts 306°
2026-04-24 20:38 26.26799 50.63897 31 ft 156 kts 304°
2026-04-24 20:38 26.27320 50.62996 17 ft 123 kts 305°
2026-04-24 20:38 26.27719 50.62297 16 ft 81 kts 302°
2026-04-24 20:38 26.27896 50.61990 21 ft 42 kts 303°
2026-04-24 20:39 26.27990 50.61821 18 ft 16 kts 282°
2026-04-24 20:39 26.28007 50.61738 19 ft 12 kts 283°
2026-04-24 20:39 26.28006 50.61696 19 ft 1 kts 242°